Tracy, MN

10:55 AM CDT on May 23, 2017 (GMT -0500)
Tracy

Weather History for KTKC - December, 2013

Change the Weather History Date:

Friday, December 13, 2013

  Actual Average (KMML) Record (KMML)
Temperature  
Mean Temperature 12 °F -  
Max Temperature 16 °F 29 °F 53 °F (2014)
Min Temperature 9 °F 12 °F -15 °F (1985)
Degree Days  
Heating Degree Days 52    
Moisture  
Dew Point 8 °F    
Average Humidity 85    
Maximum Humidity 92    
Minimum Humidity 79    
Precipitation  
Precipitation 0.00 in - - ()
Sea Level Pressure  
Sea Level Pressure 30.11 in    
Wind  
Wind Speed 5 mph (NE)    
Max Wind Speed 17 mph    
Max Gust Speed 20 mph    
Visibility 9 miles    
Events Snow    
Averages and records for this station are not official NWS values.
T = Trace of Precipitation, MM = Missing Value Source: NWS Daily Summary

Daily Weather History Graph

Daily Weather History Graph

Search for Another Location

Airport or City:

Trip Planner

Search our weather history database for the weather conditions in past years. The results will help you decide how hot, cold, wet, or windy it might be!

Date:

Astronomy

Dec. 13, 2013 Rise Set
Actual Time 7:49 AM CST 4:43 PM CST
Civil Twilight 7:16 AM CST 5:16 PM CST
Nautical Twilight 6:39 AM CST 5:53 PM CST
Astronomical Twilight 6:04 AM CST 6:28 PM CST
Moon 2:32 PM CST (12/13) 4:07 AM CST (12/13)
Length of Visible Light 10h 00m
Length of Day
8h 53m
Waxing Gibbous, 88% of the Moon is Illuminated
Dec 13
Waxing Gibbous
Dec 17
Full
Dec 25
Last Quarter
Jan 1
New
Jan 7
First Quarter

Hourly Weather History & Observations

Time (CST) Temp. Windchill Dew Point Humidity Pressure Visibility Wind Dir Wind Speed Gust Speed Precip Events Conditions
12:18 AM 14.9 °F - 11.5 °F 86% 30.06 in 10.0 mi Calm Calm - N/A   Clear
12:38 AM 15.8 °F - 12.0 °F 85% 30.05 in 10.0 mi Calm Calm - N/A   Clear
12:58 AM 14.0 °F - 10.0 °F 84% 30.05 in 10.0 mi Calm Calm - N/A   Clear
1:18 AM 11.1 °F - 8.1 °F 87% 30.04 in 10.0 mi Calm Calm - N/A   Clear
1:38 AM 10.8 °F - 8.8 °F 92% 30.04 in 10.0 mi Calm Calm - N/A   Clear
1:58 AM 11.1 °F - 8.6 °F 90% 30.05 in 10.0 mi Calm Calm - N/A   Clear
2:18 AM 10.2 °F - 7.7 °F 90% 30.05 in 10.0 mi Calm Calm - N/A   Clear
2:38 AM 9.3 °F - 7.0 °F 90% 30.06 in 10.0 mi Calm Calm - N/A   Scattered Clouds
2:58 AM 9.0 °F - 6.4 °F 89% 30.06 in 10.0 mi Calm Calm - N/A   Mostly Cloudy
3:17 AM 9.1 °F - 6.6 °F 89% 30.06 in 7.0 mi Calm Calm - N/A   Scattered Clouds
3:37 AM 9.3 °F - 6.8 °F 89% 30.06 in 10.0 mi Calm Calm - N/A   Clear
3:58 AM 9.1 °F - 6.4 °F 89% 30.06 in 10.0 mi Calm Calm - N/A   Clear
4:18 AM 9.5 °F - 6.8 °F 89% 30.06 in 10.0 mi Calm Calm - N/A   Clear
4:37 AM 9.3 °F 1.0 °F 6.6 °F 89% 30.06 in 10.0 mi North 4.6 mph - N/A   Clear
4:58 AM 9.3 °F - 6.4 °F 88% 30.04 in 10.0 mi Calm Calm - N/A   Clear
5:18 AM 10.0 °F - 7.0 °F 87% 30.06 in 10.0 mi Calm Calm - N/A   Clear
5:38 AM 10.0 °F - 7.2 °F 88% 30.06 in 10.0 mi Calm Calm - N/A   Clear
5:58 AM 10.2 °F - 7.3 °F 88% 30.07 in 10.0 mi Calm Calm - N/A   Clear
6:17 AM 10.4 °F - 7.5 °F 88% 30.08 in 10.0 mi Calm Calm - N/A   Clear
6:37 AM 10.4 °F - 7.7 °F 89% 30.08 in 10.0 mi Calm Calm - N/A   Clear
6:57 AM 10.8 °F -1.1 °F 7.7 °F 87% 30.08 in 10.0 mi NNE 8.1 mph - N/A   Clear
7:17 AM 10.9 °F -0.8 °F 7.9 °F 87% 30.08 in 10.0 mi NNE 8.1 mph - N/A   Clear
7:37 AM 10.9 °F -0.8 °F 7.9 °F 87% 30.08 in 10.0 mi NNE 8.1 mph - N/A   Clear
7:58 AM 11.3 °F 0.7 °F 8.4 °F 88% 30.08 in 10.0 mi NNE 6.9 mph - N/A   Clear
8:18 AM 11.7 °F - 8.6 °F 88% 30.08 in 10.0 mi Calm Calm - N/A   Clear
8:37 AM 12.0 °F - 9.0 °F 88% 30.09 in 10.0 mi Calm Calm - N/A   Clear
8:58 AM 12.2 °F 1.7 °F 9.1 °F 88% 30.09 in 10.0 mi NE 6.9 mph - N/A   Clear
9:18 AM 12.7 °F - 9.5 °F 87% 30.09 in 10.0 mi Calm Calm - N/A   Clear
9:37 AM 13.6 °F 1.6 °F 10.4 °F 87% 30.10 in 10.0 mi ENE 9.2 mph - N/A   Clear
9:57 AM 14.7 °F 2.1 °F 10.8 °F 84% 30.10 in 10.0 mi ENE 10.4 mph - N/A   Clear
10:18 AM 14.9 °F 0.9 °F 10.6 °F 83% 30.10 in 10.0 mi ENE 12.7 mph 17.3 mph N/A   Clear
10:38 AM 15.3 °F 0.8 °F 10.4 °F 81% 30.10 in 10.0 mi ENE 13.8 mph - N/A   Clear
10:57 AM 15.3 °F 0.2 °F 10.2 °F 80% 30.10 in 10.0 mi East 15.0 mph - N/A   Clear
11:17 AM 15.6 °F 2.5 °F 10.4 °F 80% 30.11 in 10.0 mi ENE 11.5 mph - N/A   Clear
11:37 AM 14.9 °F 2.3 °F 9.9 °F 80% 30.11 in 10.0 mi ENE 10.4 mph - N/A   Scattered Clouds
11:58 AM 14.9 °F 1.6 °F 10.0 °F 81% 30.10 in 10.0 mi NE 11.5 mph 16.1 mph N/A   Scattered Clouds
12:18 PM 15.6 °F 3.2 °F 10.2 °F 79% 30.10 in 10.0 mi ENE 10.4 mph - N/A   Scattered Clouds
12:38 PM 15.6 °F 2.5 °F 10.4 °F 80% 30.10 in 10.0 mi ENE 11.5 mph - N/A   Clear
12:58 PM 16.3 °F 4.9 °F 10.9 °F 79% 30.10 in 10.0 mi ENE 9.2 mph - N/A   Scattered Clouds
1:18 PM 16.9 °F 4.1 °F 11.5 °F 79% 30.10 in 10.0 mi NE 11.5 mph - N/A   Scattered Clouds
1:37 PM 16.5 °F 1.3 °F 11.3 °F 80% 30.09 in 10.0 mi NE 16.1 mph 19.6 mph N/A   Scattered Clouds
1:58 PM 16.2 °F 1.3 °F 11.1 °F 81% 30.09 in 10.0 mi NE 15.0 mph - N/A   Mostly Cloudy
2:18 PM 15.8 °F 2.1 °F 10.9 °F 81% 30.09 in 10.0 mi NE 12.7 mph 18.4 mph N/A   Mostly Cloudy
2:38 PM 15.6 °F -0.4 °F 10.9 °F 82% 30.09 in 10.0 mi NE 17.3 mph - N/A   Overcast
2:57 PM 15.1 °F 1.1 °F 10.8 °F 83% 30.09 in 10.0 mi NE 12.7 mph - N/A   Overcast
3:18 PM 14.7 °F -0.5 °F 10.2 °F 82% 30.10 in 10.0 mi NE 15.0 mph 18.4 mph N/A   Overcast
3:38 PM 14.2 °F 0.0 °F 9.5 °F 82% 30.11 in 10.0 mi NE 12.7 mph - N/A   Overcast
3:58 PM 14.0 °F 0.5 °F 9.5 °F 82% 30.11 in 10.0 mi ENE 11.5 mph - N/A   Mostly Cloudy
4:18 PM 13.8 °F 0.2 °F 9.1 °F 82% 30.12 in 10.0 mi ENE 11.5 mph - N/A   Overcast
4:37 PM 13.6 °F 0.0 °F 9.0 °F 82% 30.13 in 10.0 mi NE 11.5 mph - N/A   Overcast
4:57 PM 13.1 °F -0.7 °F 8.6 °F 82% 30.13 in 10.0 mi NE 11.5 mph - N/A   Overcast
5:18 PM 13.1 °F -1.4 °F 8.4 °F 82% 30.14 in 10.0 mi NE 12.7 mph 17.3 mph N/A   Overcast
5:38 PM 12.7 °F -1.1 °F 8.2 °F 82% 30.14 in 10.0 mi NE 11.5 mph 18.4 mph N/A   Mostly Cloudy
5:58 PM 12.2 °F -1.0 °F 7.7 °F 82% 30.15 in 10.0 mi NE 10.4 mph - N/A   Mostly Cloudy
6:18 PM 12.0 °F -2.0 °F 7.5 °F 82% 30.16 in 10.0 mi NE 11.5 mph - N/A   Overcast
6:37 PM 11.5 °F -4.7 °F 7.0 °F 82% 30.16 in 10.0 mi NE 15.0 mph - N/A   Mostly Cloudy
6:57 PM 11.8 °F -3.6 °F 7.3 °F 82% 30.18 in 10.0 mi NE 13.8 mph - N/A   Mostly Cloudy
7:17 PM 11.7 °F -2.5 °F 7.2 °F 82% 30.18 in 10.0 mi NE 11.5 mph - N/A   Overcast
7:37 PM 11.3 °F -2.2 °F 6.8 °F 82% 30.18 in 10.0 mi NE 10.4 mph - N/A   Overcast
7:57 PM 11.1 °F -2.4 °F 6.6 °F 82% 30.20 in 10.0 mi NE 10.4 mph - N/A   Overcast
8:18 PM 11.1 °F -2.4 °F 6.8 °F 83% 30.20 in 10.0 mi NE 10.4 mph - N/A   Overcast
8:38 PM 11.1 °F -1.6 °F 6.8 °F 83% 30.20 in 10.0 mi NE 9.2 mph - N/A   Overcast
8:58 PM 10.9 °F -3.4 °F 6.6 °F 83% 30.21 in 10.0 mi NE 11.5 mph - N/A   Overcast
9:18 PM 10.9 °F -4.1 °F 6.1 °F 81% 30.21 in 10.0 mi NE 12.7 mph - N/A   Overcast
9:38 PM 10.8 °F -3.6 °F 6.4 °F 83% 30.21 in 7.0 mi NNE 11.5 mph - N/A Snow Light Snow
9:57 PM 10.4 °F -2.4 °F 6.8 °F 85% 30.21 in 2.5 mi NNE 9.2 mph - N/A Snow Light Snow
10:17 PM 10.4 °F -3.3 °F 6.8 °F 85% 30.21 in 2.5 mi NNE 10.4 mph - N/A Snow Light Snow
10:37 PM 10.2 °F -4.3 °F 7.0 °F 87% 30.22 in 3.0 mi NNE 11.5 mph - N/A Snow Light Snow
10:57 PM 10.2 °F -2.7 °F 6.8 °F 86% 30.22 in 4.0 mi NNE 9.2 mph - N/A Snow Light Snow
11:17 PM 10.0 °F -2.9 °F 6.8 °F 87% 30.23 in 2.0 mi NNE 9.2 mph - N/A Snow Light Snow
11:38 PM 10.0 °F -2.9 °F 6.6 °F 86% 30.23 in 2.0 mi NNE 9.2 mph - N/A Snow Light Snow
11:58 PM 9.9 °F -3.1 °F 6.6 °F 87% 30.23 in 1.8 mi NNE 9.2 mph - N/A Snow Light Snow